RadFxSat 1 00000U 17017A 17318.46018518 -.00000000 00000-0 00000-0 0 9990 2 00000 97.6969 249.5697 0258300 235.3028 178.8186 14.79656332 -131 AO-07 1 07530U 74089B 17317.47915470 -.00000025 00000-0 12033-3 0 9999 2 07530 101.6534 283.3344 0012394 033.7619 077.2572 12.53629755967335 UO-11 1 14781U 84021B 17317.55887759 .00000130 00000-0 22283-4 0 9994 2 14781 097.6793 357.6217 0009920 073.6986 286.5319 14.82954076791483 LO-19 1 20442U 90005G 17317.72005784 .00000024 00000-0 24719-4 0 9991 2 20442 98.5879 252.7868 0012864 68.0826 292.1724 14.32877479453033 HUBBLE 1 20580U 90037B 17317.70964609 .00000550 00000-0 22847-4 0 9991 2 20580 28.4693 99.4069 0002707 346.2969 133.7608 15.08916556312898 MET-2/21 1 22782U 93055A 17317.49200653 .00000065 00000-0 44936-4 0 9992 2 22782 082.5488 265.0863 0022851 015.6371 122.2301 13.83804354222072 AO-27 1 22825U 93061C 17317.50755032 .00000013 00000-0 22969-4 0 9990 2 22825 98.8334 285.0733 0007368 254.4626 105.5742 14.30013039258741 IO-26 1 22826U 93061D 17317.50425852 .00000014 00000-0 23251-4 0 9991 2 22826 98.8276 285.1342 0007942 243.3838 116.6530 14.30343105258922 FO-29 1 24278U 96046B 17317.60614524 -.00000024 00000-0 14759-4 0 9992 2 24278 098.5376 180.8099 0349644 310.2564 046.8478 13.53080434048830 NOAA-15 1 25338U 98030A 17317.61777138 .00000045 00000-0 37575-4 0 9990 2 25338 098.7794 328.8096 0011357 129.6660 230.5523 14.25825423014045 GO-32 1 25397U 98043D 17317.47581812 .00000000 00000-0 19090-4 0 9998 2 25397 98.6253 256.7590 0000457 347.1921 12.9246 14.23633463 5035 ISS 1 25544U 98067A 17317.69239547 .00004097 00000-0 69077-4 0 9997 2 25544 51.6432 13.0151 0004473 113.8579 43.1885 15.54139029 85007 NO-44 1 26931U 01043C 17317.73185933 -.00000008 00000-0 28846-4 0 9998 2 26931 67.0525 65.3427 0005336 262.2147 97.8349 14.30482780841736 SO-50 1 27607U 02058C 17317.60193100 .00000041 00000-0 26459-4 0 9991 2 27607 064.5569 028.9566 0038781 027.1992 333.1130 14.75389228801026 CO-55 1 27844U 03031E 17317.87254193 .00000085 00000-0 58196-4 0 9996 2 27844 98.6897 324.7018 0008716 275.2458 84.7725 14.22074403745594 CO-57 1 27848U 03031J 17317.56118592 .00000066 00000-0 49844-4 0 9997 2 27848 098.6988 324.7152 0008656 287.3288 072.6943 14.21684061745398 RS-22 1 27939U 03042A 17317.88108102 .00000127 00000-0 31312-4 0 9990 2 27939 97.9606 97.9994 0014266 109.8708 41.3149 14.66627501755252 NOAA-18 1 28654U 05018A 17317.60444565 .00000001 00000-0 25992-4 0 9994 2 28654 099.1714 343.3918 0014479 016.5147 343.6492 14.12356688643253 CO-58 1 28895U 05043F 17317.36473520 .00000202 00000-0 47731-4 0 9993 2 28895 097.8815 112.9483 0017535 035.7510 324.4863 14.63470000642076 Falconsat-3 1 30776U 07006E 17317.84725916 .00003126 00000-0 96062-4 0 9996 2 30776 35.4351 196.4899 0004239 252.5794 107.4468 15.33386716591237 CO-65 1 32785U 08021C 17317.53468817 .00000332 00000-0 41809-4 0 9991 2 32785 97.5580 334.9235 0014023 38.9643 321.2582 14.88002103517107 AAUSAT2 1 32788U 08021F 17317.59319812 .00000524 00000-0 54059-4 0 9994 2 32788 097.5448 347.8473 0011749 358.5009 001.6174 14.94101875517883 DO-64 1 32789U 08021G 17317.60756985 .00001420 00000-0 10296-3 0 9993 2 32789 097.5425 012.5979 0011312 318.5696 041.4672 15.05463978519245 CO-66 1 32791U 08021J 17317.63593369 .00000437 00000-0 50306-4 0 9998 2 32791 97.5523 339.8315 0013889 22.4710 337.7114 14.90383408517405 RS-30 1 32953U 08025A 17317.58234949 .00000025 00000-0 10804-3 0 9993 2 32953 082.4998 146.7702 0018776 321.4458 038.5280 12.43079905429985 PRISM 1 33493U 09002B 17317.74183359 .00000975 00000-0 92603-4 0 9997 2 33493 98.1476 206.3302 0015028 315.3550 44.6452 14.95942823478138 NOAA-19 1 33591U 09005A 17317.55052990 .00000114 00000-0 87267-4 0 9999 2 33591 99.1134 286.6420 0013389 209.3292 150.7129 14.12228203451739 TISAT-1 1 36799U 10035E 17317.58336088 .00000652 00000-0 72626-4 0 9993 2 36799 098.0798 083.5174 0012252 190.6374 169.4586 14.90594224397836 JUGNU 1 37839U 11058B 17317.28034609 .00000331 00000-0 34972-4 0 9992 2 37839 019.9614 266.4515 0018975 027.5220 126.3523 14.12600823314691 SRMSAT 1 37841U 11058D 17317.34009610 .00000334 00000-0 38400-4 0 9999 2 37841 019.9730 310.8419 0011642 279.8707 214.0577 14.10590841314270 AO-71 1 37854U 11061E 17317.56770275 .00002566 00000-0 14222-3 0 9997 2 37854 101.6990 267.1643 0165820 352.6722 007.2069 15.04743987328941 HRBE 1 37855U 11061F 17317.74698254 .00003097 00000-0 16670-3 0 9993 2 37855 101.7110 265.1389 0179022 359.5089 0.5919 15.03700497329267 ALMASAT-1 1 38078U 12006B 17317.81071535 .00017702 36677-5 19035-3 0 9996 2 38078 69.4327 87.7405 0278326 69.0914 293.9834 15.29540041307602 HORYU-2 1 38340U 12025D 17317.90055769 .00000301 00000-0 52411-4 0 9999 2 38340 98.3772 327.1162 0011799 170.1367 190.0075 14.75442916295360 RS-40 1 38735U 12041C 17317.56964270 .00000003 00000-0 -49492-4 0 9998 2 38735 082.4783 231.0346 0017901 063.2676 297.0233 12.42575110240221 BEESAT-3 1 39134U 13015E 17317.62736058 .00001977 00000-0 10408-3 0 9996 2 39134 064.8634 103.8636 0032390 241.8300 117.9553 15.18454678251788 BEESAT-2 1 39136U 13015G 17317.85959549 .00001515 00000-0 88714-4 0 9999 2 39136 64.8688 115.9606 0033282 260.7845 98.9515 15.15601195251955 ZACUBE-1 1 39417U 13066B 17317.56759942 .00000314 00000-0 46027-4 0 9997 2 39417 097.6131 352.4372 0060258 140.2149 220.3506 14.80816350214888 TRITON-1 1 39427U 13066M 17317.58196241 .00000271 00000-0 51627-4 0 9991 2 39427 097.6367 322.9207 0113106 229.7106 129.4172 14.67559500212765 GOMX-1 1 39430U 13066Q 17317.89383883 .00000292 00000-0 62553-4 0 9992 2 39430 97.6757 305.5996 0150468 290.5044 68.0062 14.58970870211754 LO-74 1 39440U 13066AA 17317.57395325 .00000293 00000-0 47850-4 0 9996 2 39440 097.6169 340.4823 0080859 174.6322 185.5774 14.75555076212927 AO-73 1 39444U 13066AE 17317.60750818 .00000383 00000-0 53797-4 0 9993 2 39444 097.6147 353.7221 0059480 136.3499 224.2442 14.81571235213142 SPROUT 1 39770U 14029E 17317.88273046 .00001205 00000-0 14228-3 0 9997 2 39770 97.8762 55.8393 0008755 187.3951 172.7110 14.86522310188377 DUCHIFAT-1 1 40021U 14033M 17317.31886843 .00000705 00000-0 78800-4 0 9997 2 40021 97.9145 230.6623 0013147 163.9767 196.1868 14.90090871184800 NANOSATCBR1 1 40024U 14033Q 17317.52399078 .00000518 00000-0 60497-4 0 9997 2 40024 097.9094 229.5111 0012464 164.5712 195.5887 14.89387067184250 EO-79 1 40025U 14033R 17317.51728333 .00000430 00000-0 52179-4 0 9998 2 40025 97.9067 228.3159 0012623 168.1078 192.0439 14.88562493184704 DTUSAT-2 1 40030U 14033W 17317.49335301 .00000419 00000-0 51517-4 0 9992 2 40030 097.9026 227.2466 0012177 162.5578 197.6059 14.88178316184145 EO-80 1 40032U 14033Y 17317.54205980 .00000398 00000-0 49229-4 0 9992 2 40032 097.9034 227.3000 0012142 162.8327 197.3302 14.88114251184133 ANTELSAT 1 40034U 14033AA 17317.65414945 .00000293 00000-0 51238-4 0 9996 2 40034 97.8371 196.7801 0059014 170.7624 189.4685 14.73802423182945 VELOX-1 1 40057U 14034E 17317.79394013 .00000566 00000-0 87412-4 0 9996 2 40057 98.1945 60.3216 0009653 302.3166 57.7108 14.77267116181848 DAURIA DX 1 1 40071U 14037C 17317.84541107 .00000267 00000-0 41787-4 0 9992 2 40071 98.3515 74.9838 0007321 298.6345 61.4136 14.81087035181125 UKUBE-1 1 40074U 14037F 17317.82074021 .00000622 00000-0 82523-4 0 9997 2 40074 98.3623 79.6099 0003373 297.9741 62.1138 14.83647146181367 HODOYOSHI-1 1 40299U 14070B 17317.79180594 .00001304 00000-0 59095-4 0 9998 2 40299 97.3946 38.2161 0011629 291.9421 180.1687 15.22584062167709 CHUBUSAT-1 1 40300U 14070C 17317.83201132 .00001395 00000-0 65388-4 0 9990 2 40300 97.3854 34.9312 0018952 300.7320 198.1850 15.21216742167532 QSAT-EOS 1 40301U 14070D 17317.82164810 .00003089 00000-0 12957-3 0 9996 2 40301 97.3799 35.4163 0025486 292.8717 186.2359 15.23963339167616 FIREBIRD FU3 1 40377U 15003B 17317.66434566 .00002940 00000-0 12586-3 0 9999 2 40377 99.1115 171.4948 0132998 226.5361 132.4745 15.16269181153656 FIREBIRD FU4 1 40378U 15003C 17317.65480790 .00002737 00000-0 11738-3 0 9991 2 40378 99.1117 171.5303 0133203 226.4682 132.5419 15.16283222153651 GRIFEX 1 40379U 15003D 17317.82302568 .00002188 00000-0 10074-3 0 9999 2 40379 99.1151 168.8718 0139456 235.4850 123.3144 15.13626759153513 NO-84 1 40654U 15025D 17317.38045070 .00012704 00000-0 22543-3 0 01397 2 40654 054.9965 288.4871 0166423 282.0857 076.1553 15.36799865022629 NO-83 1 40655U 15025E 17317.27774180 .00024245 00000-0 32068-3 0 01584 2 40655 054.9800 253.5354 0127443 303.5523 055.3323 15.49135774022738 DEORBITSAIL 1 40719U 15032E 17317.58897722 .00000582 00000-0 91368-4 0 9995 2 40719 097.9635 209.3434 0017299 026.2076 334.0005 14.76232455126360 NUDT-PHONESAT 1 40900U 15049B 17317.82769928 .00002723 00000-0 12812-3 0 9993 2 40900 97.4435 323.7131 0015407 65.9345 294.3500 15.20318356119183 XW-2A 1 40903U 15049E 17317.78610778 .00002320 00000-0 60893-4 0 9995 2 40903 97.4097 345.3060 0016405 87.6020 272.7104 15.39584160120653 XW-2C 1 40906U 15049H 17317.67512051 .00000988 00000-0 56513-4 0 9993 2 40906 97.4575 320.2264 0016637 60.0031 300.2850 15.14854710118868 XW-2D 1 40907U 15049J 17317.77949086 .00001049 00000-0 59579-4 0 9991 2 40907 97.4546 320.0579 0015966 58.0393 302.2389 15.14981388118889 LILACSAT-2 1 40908U 15049K 17317.66845163 .00000554 00000-0 34638-4 0 9990 2 40908 97.4651 319.5720 0017532 57.6686 302.6239 15.13310197118778 XW-2F 1 40910U 15049M 17317.82068419 .00001550 00000-0 83869-4 0 9999 2 40910 97.4560 321.0292 0016715 54.8746 305.4051 15.16011653118816 XW-2B 1 40911U 15049N 17317.85570317 .00001018 00000-0 57991-4 0 9994 2 40911 97.4586 320.5815 0015869 58.2129 302.0646 15.14934871118796 DCBB 1 40912U 15049P 17317.73521792 .00002518 00000-0 12615-3 0 9994 2 40912 97.4521 323.2080 0017084 46.6655 40.0000 15.18172436118974 TW-1C 1 40926U 15051B 17317.78730553 .00010533 00000-0 22070-3 0 9996 2 40926 97.2134 356.3002 0010508 355.6157 94.4604 15.45543241120008 TW-1A 1 40928U 15051D 17317.79471822 .00004059 00000-0 11269-3 0 9994 2 40928 97.2119 350.9034 0013366 27.1031 61.5792 15.37381314119671 IO-86 1 40931U 15052B 17317.18416012 .00000740 00000-0 14103-4 0 9996 2 40931 6.0011 250.3423 0012628 193.1086 166.8753 14.76554407115021 GomX-3 1 40949U 98067HA 16292.18357804 .08527750 12374-4 77882-3 0 9992 2 40949 51.6055 106.7696 0006699 286.1344 73.8944 16.38002265 59645 LQSat 1 40958U 15057A 17317.83094431 .00000068 00000-0 18381-4 0 9994 2 40958 97.9650 30.4325 0016986 310.6801 49.2920 14.72999753113142 AO-85 1 40967U 15058D 17317.48517596 .00000311 00000-0 53798-4 0 01509 2 40967 064.7752 125.9530 0182655 023.9761 336.9713 14.75569732021823 ATHENOXAT-1 1 41168U 15077C 17317.77361799 .00003227 00000-0 14310-3 0 9994 2 41168 14.9826 156.2439 0012329 289.8216 160.2280 15.12178939105714 ChubuSat-2 1 41338U 16012B 17317.16658647 .00000523 00000-0 34326-4 0 9993 2 41338 031.0032 246.0081 0013800 094.6530 265.5682 14.99864916095375 ChubuSat-3 1 41339U 16012C 17317.80675380 .00000611 00000-0 41064-4 0 9993 2 41339 31.0096 240.8529 0013600 108.1133 252.0995 15.00062446 95451 Horyu-4 1 41340U 16012D 17317.17992102 .00000775 00000-0 52861-4 0 9997 2 41340 031.0050 241.2726 0014074 111.8705 248.3428 15.00795609095418 OUFTI-1 1 41458U 16025C 17317.85632210 .00002551 00000-0 13696-3 0 9993 2 41458 98.1691 3.9456 0173602 148.7244 212.4401 15.03915814 85064 e-st@r-II 1 41459U 16025D 17317.69562850 .00002253 00000-0 12229-3 0 9998 2 41459 98.1655 3.6901 0173712 149.8407 211.2895 15.03684760 85036 AAUSAT4 1 41460U 16025E 17317.79337731 .00003804 00000-0 20173-3 0 9999 2 41460 98.1632 4.0101 0166331 146.9100 214.2602 15.04855446 85083 NODES 1 1 41477U 98067HX 17262.38431888 .17021661 12538-4 46079-3 0 9990 2 41477 51.6074 225.8859 0003017 249.6794 110.5489 16.45625800 77086 NODES 2 1 41478U 98067HY 17266.27255257 .13534231 12598-4 22876-3 0 9990 2 41478 51.6086 206.1528 0005980 262.1280 97.9071 16.47641774 77698 LO-87 1 41557U 16033B 17317.84982466 .00001989 00000-0 76162-4 0 9994 2 41557 97.4539 37.3373 0013661 192.6260 167.4639 15.27685661 81271 NuSat2 1 41558U 16033C 17317.83382526 .00001832 00000-0 70741-4 0 9999 2 41558 97.4567 37.3911 0013176 191.0338 169.0614 15.27511781 81262 Lapan A3 1 41603U 16040E 17317.81217847 .00000338 00000-0 19171-4 0 9999 2 41603 97.4430 17.8603 0011834 274.6242 221.3176 15.19460736 77370 Swayam 1 41607U 16040J 17317.39529932 .00001974 00000-0 90728-4 0 9991 2 41607 97.4439 18.1177 0012413 274.9927 84.9892 15.21490505 77288 Pratham 1 41783U 16059A 17317.61531926 .00000076 00000-0 24232-4 0 9996 2 41783 098.1495 017.3008 0034622 053.7440 306.6953 14.62877914060445 AlSat 1N 1 41789U 16059G 17317.75322209 .00000143 00000-0 36385-4 0 9996 2 41789 98.1497 18.2302 0029470 47.1508 313.2153 14.64099161 60490 ScatSat 1 41790U 16059H 17317.59003779 .00000025 00000-0 17541-4 0 9990 2 41790 098.2922 003.9241 0019084 036.0909 324.1570 14.50848120059923 TY-1 1 41844U 16066D 17317.82166269 .00002332 00000-0 10305-3 0 9991 2 41844 97.4072 322.7684 0017759 74.5664 7.9236 15.22578116 56102 CAS-2T 1 41845U 16066E 17317.80846197 .00000210 00000-0 41994-4 0 9997 2 41845 98.7703 336.9765 0366727 163.9486 197.3695 14.37826159 52996 Pegasus-1 1 41846U 16066F 17317.58678791 .00000319 00000-0 58770-4 0 9996 2 41846 098.7738 336.4273 0369163 166.4391 194.7050 14.37180799052937 STARS-C 1 41895U 98067KR 17317.53452631 .00063796 00000-0 41056-3 0 9995 2 41895 051.6354 354.9689 0003006 062.6780 297.4525 15.75565620051401 Tancredo 1 1 41931U 98067KT 17290.98270503 .14164078 12479-4 76733-3 0 9998 2 41931 51.6104 115.9004 0006182 280.1451 79.8879 16.42240901 42996 TO-89 1 41932U 98067KU 17317.56946614 .00017631 00000-0 17996-3 0 9992 2 41932 051.6402 002.0561 0004752 087.9238 272.2302 15.65153909046886 AOBA-V3LOX3 1 41935U 98067KX 17317.56670336 .00021332 00000-0 20741-3 0 9995 2 41935 051.6395 001.2759 0004149 084.6489 275.4980 15.66233408046995 OSNSAT 1 41939U 98067KZ 17317.46803640 .00107394 00000-0 50692-3 0 9995 2 41939 051.6346 350.7339 0006592 059.0774 301.0876 15.82208337046382 EO-88 1 42017U 17008BX 17317.55040998 .00001933 00000-0 83483-4 0 9995 2 42017 097.4785 018.6305 0007961 065.1369 295.0695 15.23691590041228 HAVELSAT 1 42700U 98067LH 17317.71313961 .00016246 00000-0 19208-3 0 9995 2 42700 51.6399 8.2408 0004219 151.6208 208.5017 15.61443168 28258 SOMP2 1 42701U 98067LJ 17317.61204900 .00017002 00000-0 20433-3 0 9990 2 42701 51.6396 9.0675 0004215 151.1807 208.9420 15.60975462 28222 Columbia 1 42702U 98067LK 17317.57672010 .00058325 00000-0 46861-3 0 9993 2 42702 051.6365 005.0563 0002744 081.4479 278.6829 15.70393696028205 PHOENIX 1 42706U 98067LP 17317.59979650 .00014882 00000-0 17865-3 0 9991 2 42706 51.6395 8.9878 0001361 69.4983 290.6157 15.61127811 28148 X-CubeSat 1 42707U 98067LQ 17317.59442179 .00016850 00000-0 19936-3 0 9991 2 42707 51.6383 8.9405 0001443 65.2554 294.8589 15.61397842 28138 qbee 1 42708U 98067LR 17317.60243762 .00015921 00000-0 19015-3 0 9997 2 42708 51.6388 8.9949 0001447 68.8705 291.2443 15.61200505 28092 ZA-AeroSat 1 42713U 98067LU 17317.60006107 .00014102 00000-0 17647-3 0 9992 2 42713 51.6394 9.7365 0002716 65.0880 295.0395 15.60084500 27797 LINK 1 42714U 98067LV 17317.50834462 .00025390 00000-0 28240-3 0 9997 2 42714 51.6378 9.1118 0003054 52.5866 307.5406 15.62704201 27905 UPSat 1 42716U 98067LX 17317.56350213 .00021559 00000-0 24459-3 0 9993 2 42716 051.6394 008.7424 0002360 144.2156 215.8996 15.62299822027936 SpaceCube 1 42717U 98067LY 17317.61789308 .00017486 00000-0 20911-3 0 9994 2 42717 51.6393 9.1033 0002687 148.3883 211.7273 15.61085342 27179 Hoopoe 1 42718U 98067LZ 17317.71837430 .00018042 00000-0 21031-3 0 9999 2 42718 51.6393 8.2745 0002543 143.7515 216.3652 15.61729340 27199 Challenger 1 42721U 98067MA 17317.60306425 .00028709 00000-0 30608-3 0 9997 2 42721 51.6379 8.2420 0004793 122.1390 238.0070 15.63711123 26880 NJUST-1 1 42722U 98067MB 17317.69689329 .00013434 00000-0 17038-3 0 9995 2 42722 51.6399 9.6298 0006051 136.0173 224.1302 15.59766864 26873 UNSW-EC0 1 42723U 98067MC 17317.36815888 .00020912 00000-0 24377-3 0 9994 2 42723 51.6400 10.4389 0005272 128.8375 231.3090 15.61608307 26813 DUTHsat 1 42724U 98067MD 17317.62377000 .00027623 00000-0 29924-3 0 9992 2 42724 51.6389 8.3910 0004028 123.1897 236.9485 15.63328000 26787 LO-90 1 42725U 98067ME 17317.68231579 .00016275 00000-0 20036-3 0 9995 2 42725 51.6398 9.5351 0004802 134.9174 225.2210 15.60378394 26772 nSIGHT1 1 42726U 98067MF 17317.65410504 .00007480 00000-0 10482-3 0 9992 2 42726 51.6409 10.8531 0005751 141.9247 218.2153 15.57884409 26766 QBITO 1 42728U 98067MH 17317.64681928 .00017957 00000-0 21566-3 0 9998 2 42728 51.6412 9.3111 0002265 129.1434 230.9761 15.60953426 26588 Aalto-2 1 42729U 98067MJ 17317.70986514 .00017059 00000-0 20478-3 0 9999 2 42729 51.6400 8.9718 0002214 127.7395 232.3799 15.61006585 26604 SUSat 1 42730U 98067MK 17317.59592443 .00015902 00000-0 19372-3 0 9998 2 42730 51.6395 9.7062 0002405 126.6753 233.4461 15.60682072 26572 i-INSPIRE II 1 42731U 98067ML 17317.61072948 .00019112 00000-0 22122-3 0 9999 2 42731 51.6385 9.0411 0006732 79.2950 280.8801 15.61850080 26630 PolyITAN-2-SAU 1 42732U 98067MM 17317.57416617 .00017779 00000-0 21193-3 0 9994 2 42732 051.6391 009.5488 0006740 080.6790 279.4966 15.61140152026621 SNUSAT-1 1 42733U 98067MN 17317.59614780 .00015901 00000-0 19380-3 0 9998 2 42733 51.6393 9.6990 0006803 84.1703 276.0065 15.60652299 26628 ExAlta-1 1 42734U 98067MP 17317.74371384 .00020950 00000-0 24252-3 0 9990 2 42734 51.6385 8.4312 0007342 106.5421 253.6380 15.61773888 26608 Aoxiang-1 1 42735U 98067MQ 17317.62628859 .00013569 00000-0 17123-3 0 9997 2 42735 51.6391 9.9034 0006637 132.8028 227.3524 15.59887107 27992 BeEagleSat 1 42736U 98067MR 17317.61285576 .00015257 00000-0 18882-3 0 9991 2 42736 51.6390 9.8132 0006390 130.3608 229.7944 15.60289321 26686 Atlantis 1 42737U 98067MS 17317.57432834 .00050723 00000-0 44605-3 0 9997 2 42737 051.6356 006.5300 0004615 095.5222 264.6301 15.68252799026617 CAS-4B 1 42759U 17034B 17317.83525813 .00000691 00000-0 56389-4 0 9997 2 42759 43.0182 185.3338 0007843 209.6368 207.2742 15.09101495 22917 CAS-4A 1 42761U 17034D 17317.75768410 .00000715 00000-0 57799-4 0 9996 2 42761 43.0181 185.6710 0008430 210.0916 185.4613 15.09176684 22897 UCLSat 1 42765U 17036A 17317.83069605 .00001816 00000-0 84301-4 0 9993 2 42765 97.4325 15.8462 0013597 109.1522 251.1187 15.21222679 21967 NIUSat 1 42766U 17036B 17317.55686231 .00001535 00000-0 74430-4 0 9993 2 42766 097.4328 015.3020 0017868 097.7031 262.6234 15.19885474021772 LituanicaSAT 2 1 42768U 17036D 17317.73007605 .00002581 00000-0 12121-3 0 9997 2 42768 97.4334 15.5271 0017787 100.3929 259.9312 15.20388272 21815 InflateSail 1 42770U 17036F 17245.93730135 .99999999 00000-0 73960-1 0 9995 2 42770 097.4262 306.2162 0014869 278.7167 080.9844 16.07641391010932 Aalto 1 1 42775U 17036L 17317.24873888 .00001300 00000-0 62822-4 0 9997 2 42775 097.4325 015.0985 0016021 099.4043 260.9005 15.20316630021680 URSA MAIOR 1 42776U 17036M 17317.83709751 .00001305 00000-0 62937-4 0 9992 2 42776 97.4328 15.6928 0015895 97.8062 262.4978 15.20374920 21770 Max Valier Sat 1 42778U 17036P 17317.60220938 .00001520 00000-0 71925-4 0 9990 2 42778 097.4345 015.5773 0014451 103.7379 256.5466 15.20805857021733 Pegasus 1 42784U 17036V 17317.44901808 .00001833 00000-0 85451-4 0 9997 2 42784 097.4328 015.4440 0014116 110.3152 249.9602 15.21070681021718 NUDATSat 1 42787U 17036Y 17317.82610278 .00002189 00000-0 10048-3 0 9994 2 42787 97.4332 15.8571 0013770 109.5568 250.7156 15.21394647 21615 SUCHAI 1 1 42788U 17036Z 17317.83236360 .00001810 00000-0 83971-4 0 9998 2 42788 97.4330 15.8468 0013801 109.3653 250.9076 15.21244709 21848 SKCUBE 1 42789U 17036AA 17317.43490658 .00001763 00000-0 81880-4 0 9991 2 42789 097.4329 015.4591 0013624 110.5082 249.7617 15.21251060021703 VZLUSAT 1 1 42790U 17036AB 17317.42493498 .00002231 00000-0 10227-3 0 9994 2 42790 097.4329 015.4689 0013296 111.0844 249.1815 15.21431232021705 VENTA 1 1 42791U 17036AC 17317.42569684 .00001547 00000-0 72105-4 0 9999 2 42791 097.4328 015.4703 0013220 111.1322 249.1328 15.21326631021694 Robusta 1B 1 42792U 17036AD 17317.42294302 .00001690 00000-0 78311-4 0 9996 2 42792 097.4327 015.4699 0013152 111.5695 248.6944 15.21384377021711 D-SAT 1 42794U 17036AF 17317.72239349 .00000441 00000-0 44497-4 0 9992 2 42794 97.6245 15.1431 0125946 278.9796 79.7185 14.90699773 21624 BIRD-J 1 42820U 98067MU 17317.37812375 .00014749 00000-0 18806-3 0 9992 2 42820 051.6392 011.9957 0003583 058.9451 301.1894 15.59542619020114 BIRD-G 1 42821U 98067MV 17317.57762069 .00014302 00000-0 18368-3 0 9997 2 42821 051.6391 011.0782 0003507 063.1064 297.0287 15.59379894020128 BIRD-M 1 42822U 98067MW 17317.57752038 .00014807 00000-0 18959-3 0 9999 2 42822 051.6392 011.0785 0003470 064.9776 295.1577 15.59427285020120 BIRD-B 1 42823U 98067MX 17317.45130332 .00014491 00000-0 18560-3 0 9991 2 42823 051.6397 011.7396 0006128 090.8594 269.3101 15.59430843020108 BIRD-N 1 42824U 98067MY 17317.52098239 .00014528 00000-0 18667-3 0 9998 2 42824 051.6402 011.4573 0006007 091.7618 268.4063 15.59343851020113 TechnoSat 1 42829U 17042E 17317.57050255 .00000281 00000-0 34040-4 0 9993 2 42829 097.6073 222.8496 0013859 190.7973 169.2950 14.90715864018202 Mayak 1 42830U 17042F 17317.62869742 .00001163 00000-0 12313-3 0 9998 2 42830 097.6079 222.9355 0013881 188.6694 171.4287 14.90940683018214 OBJECT MZ 1 42910U 98067MZ 17317.59879708 .00010776 00000-0 14691-3 0 9993 2 42910 51.6387 11.9605 0006767 116.8259 243.3426 15.58080624 13702 OBJECT NA 1 42911U 98067NA 17317.65973752 .00012574 00000-0 16905-3 0 9993 2 42911 51.6400 11.6331 0006373 110.6665 249.5011 15.58279002 13694 OBJECT NB 1 42912U 98067NB 17317.73558368 .00012105 00000-0 16462-3 0 9993 2 42912 51.6383 11.3601 0005611 124.0137 236.1389 15.58016131 13725 OBJECT NC 1 42913U 98067NC 17317.62528737 .00021215 00000-0 26535-3 0 9993 2 42913 51.6387 11.3893 0003931 124.6367 235.4997 15.59755667 13673 OBJECT ND 1 42914U 98067ND 17317.54854481 .00011905 00000-0 16310-3 0 9998 2 42914 51.6399 12.3862 0005628 116.5827 243.5743 15.57836116 13687 QIKCOM-1 1 42983U 98067NF 17317.61842701 .00004407 00000-0 72484-4 0 9998 2 42983 51.6447 13.3363 0005365 110.5017 15.7349 15.54629904 2666 /EX